KD7RJ Weather Reports


time (UTC)temp
C
wind
direction
speed
KPH
gust
KPH
rain 1hr
cm
rain 24hr
cm
rain mn
cm
humidity
%
barometer
mb
20260505100059 12 176 0.0 0.0 0.00 0.00 0.00 87 1013.4
20260505094557 12 176 0.0 0.0 0.00 0.00 0.00 87 1013.4
20260505093039 12 176 0.0 0.0 0.00 0.00 0.00 88 1013.3
20260505091542 12 176 0.0 0.0 0.00 0.00 0.00 88 1013.1
20260505090021 12 176 0.0 0.0 0.00 0.00 0.00 87 1013.0
20260505084516 13 176 0.0 0.0 0.00 0.00 0.00 88 1012.9
20260505083102 13 176 0.0 0.0 0.00 0.00 0.00 87 1012.9
20260505081605 13 176 0.0 0.0 0.00 0.00 0.00 86 1012.9
20260505080039 13 176 0.0 0.0 0.00 0.00 0.00 84 1012.7
20260505074533 13 176 0.0 0.0 0.00 0.00 0.00 83 1012.5
20260505073013 14 176 1.6 8.0 0.00 0.00 0.00 83 1012.3
20260505071526 14 187 0.0 4.8 0.00 0.00 0.00 82 1012.1
20260505070059 15 188 0.0 9.7 0.00 0.00 0.00 81 1012.0
20260505064550 15 183 1.6 9.7 0.00 0.00 0.00 80 1011.8
20260505063027 15 173 8.0 16.1 0.00 0.00 0.00 80 1011.5
20260505061525 15 150 6.4 12.9 0.00 0.00 0.00 81 1011.1
20260505060016 15 59 0.0 0.0 0.00 0.00 0.00 80 1011.0
20260505054503 16 59 0.0 3.2 0.00 0.00 0.00 78 1011.0
20260505053043 16 59 0.0 8.0 0.00 0.00 0.00 77 1010.9
20260505051556 17 90 0.0 0.0 0.00 0.00 0.00 75 1010.8
20260505041554 20 191 0.0 6.4 0.00 0.00 0.00 68 1010.1
20260505040029 21 191 0.0 0.0 0.00 0.00 0.00 67 1009.9
20260505034526 21 191 1.6 8.0 0.00 0.00 0.00 66 1009.7
20260505033006 21 240 0.0 4.8 0.00 0.00 0.00 66 1009.5
20260505031503 22 242 0.0 9.7 0.00 0.00 0.00 64 1009.1
20260505030043 22 235 0.0 3.2 0.00 0.00 0.00 65 1009.0
20260505024543 23 235 0.0 0.0 0.00 0.00 0.00 64 1008.9
20260505023026 23 235 0.0 4.8 0.00 0.00 0.00 64 1008.8
20260505021528 23 197 1.6 4.8 0.00 0.00 0.00 64 1008.8
20260505020002 23 246 0.0 6.4 0.00 0.00 0.00 63 1008.8
20260505014559 24 244 0.0 6.4 0.00 0.00 0.00 60 1008.8
20260505013058 25 246 0.0 12.9 0.00 0.05 0.00 58 1008.9
20260505011540 25 259 3.2 9.7 0.00 0.05 0.00 56 1008.9
20260505010021 25 215 0.0 9.7 0.00 0.05 0.00 57 1009.0
20260505004524 25 176 0.0 9.7 0.00 0.05 0.00 57 1009.2
20260505003007 25 250 0.0 11.3 0.00 0.05 0.00 58 1009.0
20260505001506 25 242 0.0 14.5 0.00 0.05 0.00 57 1009.2
20260505000007 25 221 4.8 14.5 0.00 0.05 0.00 55 1009.3
20260504234502 25 236 0.0 12.9 0.00 0.05 0.00 54 1009.3
20260504233107 25 240 0.0 9.7 0.00 0.05 0.00 56 1009.4
20260504231558 24 227 3.2 11.3 0.00 0.05 0.00 56 1009.6
20260504230103 24 240 0.0 11.3 0.00 0.05 0.00 56 1009.8
20260504224553 25 232 0.0 8.0 0.00 0.05 0.00 54 1009.9
20260504223038 24 282 1.6 8.0 0.00 0.05 0.05 57 1010.1
20260504221532 23 244 0.0 11.3 0.00 0.05 0.05 58 1010.4
20260504220020 23 271 3.2 11.3 0.00 0.05 0.05 58 1010.6
20260504214520 22 250 1.6 11.3 0.00 0.05 0.05 60 1010.7
20260504213113 22 188 4.8 12.9 0.00 0.05 0.05 60 1010.8
20260504211556 22 218 0.0 8.0 0.00 0.05 0.05 63 1011.1
20260504210038 21 198 0.0 9.7 0.00 0.05 0.05 63 1011.3
20260504204537 20 207 0.0 11.3 0.00 0.05 0.05 64 1011.5
20260504203020 20 182 0.0 14.5 0.00 0.05 0.05 66 1011.8
20260504201521 19 196 6.4 14.5 0.00 0.05 0.05 68 1011.9
20260504200002 18 186 1.6 9.7 0.00 0.05 0.05 69 1012.0
20260504194501 18 169 0.0 11.3 0.00 0.05 0.05 71 1012.1
20260504193041 17 181 4.8 12.9 0.00 0.05 0.05 72 1012.2
20260504191548 17 225 0.0 12.9 0.00 0.05 0.05 74 1012.2
20260504190023 17 159 4.8 11.3 0.00 0.05 0.05 74 1012.4
20260504184524 16 186 4.8 11.3 0.00 0.05 0.05 75 1012.7
20260504183005 16 169 4.8 12.9 0.00 0.05 0.05 76 1012.6
20260504181505 16 256 3.2 8.0 0.00 0.05 0.05 76 1012.4
20260504180052 16 182 1.6 11.3 0.00 0.05 0.05 76 1012.6
20260504174546 16 161 4.8 11.3 0.00 0.05 0.05 78 1012.6
20260504173031 15 212 3.2 11.3 0.00 0.05 0.05 79 1012.6
20260504171530 15 194 3.2 12.9 0.00 0.05 0.05 81 1012.5
20260504150108 13 180 4.8 11.3 0.00 0.05 0.05 88 1011.8
20260504120110 13 160 3.2 14.5 0.00 0.05 0.05 82 1009.5